"Pseudo-MPEC" for P21oWP0

Created 2021 Nov 26 7:07:12 UT using Find_Orb

Click here for an explanation of pseudo-MPECs

 
 Astrometry: 
     P21oWP0  C2021 11 12G]Fp3e;Cu;EujI-X!Astrometry]l\Zx8redacted;Bclick!*cHF52
     P21oWP0  C2021 11 12EUMFlt=%924M!/qKp)Svbgtcu_Lx*[K+'E,^4.M;0635-po:hereF52
     P21oWP0  C2021 11 12lX(A2kpqrnV-@a5?cuXQ^+lnAY](forPRwvdYexplanationqQ$hF52

Station data:
(F52) Pan-STARRS 2, Haleakala  (N20.707384 W156.255910)  US/Hawaii. 1.8-m
   Ritchey-Chrétien + CCD.

Orbital elements:  P21oWP0
   Perihelion 2022 Apr 23.754702 +/- 99.743 TT = 18:06:46 (JD 2459693.254702)
Epoch 2021 Nov 12.0 TT = JDT 2459530.5   Earth MOID: 0.0298   AutoNEOCP
M 189.27832080 +/- 118.62858        (J2000 ecliptic)
n   1.04895082 +/- 0.54251          Peri.   16.61479 +/- 67.014814
a   0.95932544 +/- 0.330765         Node   205.53283 +/- 65.992503
e   0.0850986 +/- 0.241104          Incl.    3.62146 +/- 40.299499
P   0.94/343.19d           H 26.4   G  0.15   U 12.3  SR
q 0.87768817 +/- 0.428922    Q 1.04096271 +/- 15.0878
From 3 observations 2021 Nov. 12 (52.7 min); mean residual 0".08
Residuals in arcseconds: 
211112 F52  .02+  .05-    211112 F52  .06-  .15+    211112 F52  .04+  .10-    

Ephemerides (geocentric):
Date (UTC) HH   RA              Dec         delta   r     elong  mag " sig PA
---- -- -- --  -------------   -----------  ------ ------ -----  --- ---- ---
2021 11 26 07  03 13 25.906   -21 00 32.95  .06511 1.0348 136.0 22.1  43d   5
2021 11 26 08  03 13 17.050   -21 02 04.11  .06515 1.0348 136.0 22.1  43d   5
2021 11 26 09  03 13 08.205   -21 03 34.99  .06519 1.0347 135.9 22.1  43d   5
2021 11 26 10  03 12 59.368   -21 05 05.61  .06522 1.0347 135.8 22.1  43d   5
2021 11 26 11  03 12 50.542   -21 06 35.95  .06526 1.0347 135.8 22.1  43d   5
2021 11 26 12  03 12 41.725   -21 08 06.02  .06530 1.0347 135.7 22.1  43d   5
2021 11 26 13  03 12 32.918   -21 09 35.81  .06533 1.0346 135.7 22.1  43d   5
2021 11 26 14  03 12 24.121   -21 11 05.34  .06537 1.0346 135.6 22.1  43d   5
2021 11 26 15  03 12 15.334   -21 12 34.60  .06540 1.0346 135.6 22.1  43d   5
2021 11 26 16  03 12 06.557   -21 14 03.58  .06544 1.0346 135.5 22.2  43d   5
2021 11 26 17  03 11 57.789   -21 15 32.29  .06548 1.0346 135.5 22.2  43d   5
2021 11 26 18  03 11 49.031   -21 17 00.74  .06551 1.0345 135.4 22.2  43d   5
2021 11 26 19  03 11 40.284   -21 18 28.91  .06555 1.0345 135.3 22.2  43d   5
2021 11 26 20  03 11 31.546   -21 19 56.82  .06559 1.0345 135.3 22.2  43d   5
2021 11 26 21  03 11 22.818   -21 21 24.45  .06562 1.0345 135.2 22.2  43d   5
2021 11 26 22  03 11 14.100   -21 22 51.81  .06566 1.0344 135.2 22.2  43d   5
2021 11 26 23  03 11 05.393   -21 24 18.91  .06570 1.0344 135.1 22.2  43d   5
2021 11 27 00  03 10 56.695   -21 25 45.74  .06573 1.0344 135.1 22.2  43d   5
2021 11 27 01  03 10 48.007   -21 27 12.30  .06577 1.0344 135.0 22.2  43d   5
2021 11 27 02  03 10 39.330   -21 28 38.59  .06581 1.0343 135.0 22.2  43d   5
2021 11 27 03  03 10 30.662   -21 30 04.61  .06584 1.0343 134.9 22.2  43d   5
2021 11 27 04  03 10 22.005   -21 31 30.36  .06588 1.0343 134.8 22.2  43d   5
2021 11 27 05  03 10 13.358   -21 32 55.85  .06592 1.0343 134.8 22.2  43d   5
2021 11 27 06  03 10 04.721   -21 34 21.07  .06596 1.0343 134.7 22.2  43d   5
2021 11 27 07  03 09 56.094   -21 35 46.02  .06599 1.0342 134.7 22.2  44d   5
2021 11 27 08  03 09 47.477   -21 37 10.71  .06603 1.0342 134.6 22.2  44d   5
2021 11 27 09  03 09 38.871   -21 38 35.13  .06607 1.0342 134.6 22.2  44d   5
2021 11 27 10  03 09 30.275   -21 39 59.28  .06611 1.0342 134.5 22.2  44d   5
2021 11 27 11  03 09 21.689   -21 41 23.17  .06614 1.0341 134.5 22.2  44d   5
2021 11 27 12  03 09 13.114   -21 42 46.79  .06618 1.0341 134.4 22.2  44d   5
2021 11 27 13  03 09 04.549   -21 44 10.15  .06622 1.0341 134.3 22.2  44d   5
2021 11 27 14  03 08 55.994   -21 45 33.24  .06626 1.0341 134.3 22.2  44d   5
2021 11 27 15  03 08 47.450   -21 46 56.07  .06629 1.0340 134.2 22.2  44d   5
2021 11 27 16  03 08 38.916   -21 48 18.63  .06633 1.0340 134.2 22.2  44d   5
2021 11 27 17  03 08 30.393   -21 49 40.93  .06637 1.0340 134.1 22.2  44d   5
2021 11 27 18  03 08 21.880   -21 51 02.96  .06641 1.0340 134.1 22.2  44d   5
2021 11 27 19  03 08 13.377   -21 52 24.73  .06644 1.0340 134.0 22.2  44d   5
2021 11 27 20  03 08 04.886   -21 53 46.24  .06648 1.0339 134.0 22.2  44d   5
2021 11 27 21  03 07 56.404   -21 55 07.49  .06652 1.0339 133.9 22.2  44d   5
2021 11 27 22  03 07 47.933   -21 56 28.47  .06656 1.0339 133.8 22.2  44d   5
2021 11 27 23  03 07 39.473   -21 57 49.19  .06660 1.0339 133.8 22.2  44d   5
2021 11 28 00  03 07 31.023   -21 59 09.65  .06663 1.0338 133.7 22.2  44d   5
2021 11 28 01  03 07 22.584   -22 00 29.84  .06667 1.0338 133.7 22.2  44d   5
2021 11 28 02  03 07 14.156   -22 01 49.78  .06671 1.0338 133.6 22.2  44d   5
2021 11 28 03  03 07 05.738   -22 03 09.45  .06675 1.0338 133.6 22.2  44d   5
2021 11 28 04  03 06 57.331   -22 04 28.86  .06679 1.0337 133.5 22.2  44d   5
2021 11 28 05  03 06 48.934   -22 05 48.01  .06683 1.0337 133.5 22.2  44d   5
2021 11 28 06  03 06 40.548   -22 07 06.90  .06686 1.0337 133.4 22.3  44d   5